Regional Weather Roundup
Issued by NWS

Home | Current Version | Previous Version | Text Only | Print | Product List | Glossary On
Versions: 1 2 3 4 5 6 7 8 9 10 11 12 13 14 15 16 17 18 19 20 21 22 23 24 25 26 27 28
000
ASUS44 KJAN 250310
RWRMS

MISSISSIPPI HOURLY WEATHER ROUNDUP
NATIONAL WEATHER SERVICE JACKSON MS
1000 PM CDT SUN SEP 24 2017

NOTE: "FAIR: INDICATES FEW OR NO CLOUDS BELOW 12,000 FEET WITH NO
SIGNIFICANT WEATHER AND/OR OBSTRUCTIONS TO VISIBILITY.

MSZ001>002-007>008-010>013-018>021-025>028-034>036-250400-
NORTHWEST MISSISSIPPI

CITY           SKY/WX    TMP DP  RH WIND       PRES   REMARKS
BATESVILLE     FAIR      70  68  93 CALM      29.98S FOG
CLARKSDALE       N/A     73  73 100 CALM      29.97S
CLEVELAND      FAIR      76  67  72 E6        29.95S
GREENWOOD      CLEAR     70  68  93 CALM      29.95S
GREENVILLE     CLEAR     75  65  70 E6        29.94R
TUNICA           N/A    N/A N/A N/A CALM      29.98S
WINONA         FAIR      70  70 100 CALM      29.97S
$$

MSZ003>006-009-014>017-022>024-029>033-037>039-250400-
NORTHEAST MISSISSIPPI

CITY           SKY/WX    TMP DP  RH WIND       PRES   REMARKS
COLUMBUS AFB   CLEAR     71  71  99 CALM      29.97S
STARKVILLE     FAIR      70  68  94 CALM      29.99R
TUPELO         CLEAR     75  66  73 CALM      29.98S
$$

MSZ040-058-250400-
CENTRAL MISSISSIPPI

CITY           SKY/WX    TMP DP  RH WIND       PRES   REMARKS
JACKSON INTL   CLEAR     71  68  90 CALM      29.95F
JACKSON HAWKNS CLEAR     72  68  87 CALM      29.96S
MADISON        FAIR      70  64  83 CALM      29.95S
MERIDIAN KEY   CLEAR     72  70  93 CALM      29.97S
MERIDIAN NAS   CLEAR     74  69  85 CALM      29.97S
RAYMOND        FAIR      72  68  88 CALM      29.95S
VICKSBURG VKS  CLEAR     73  66  78 CALM      29.95S
$$

MSZ059>079-250400-
SOUTH MISSISSIPPI

CITY           SKY/WX    TMP DP  RH WIND       PRES   REMARKS
COLUMBIA       FAIR      68 N/A N/A CALM      29.99S
HATTIESBURG    CLEAR     70  70 100 CALM      29.96F
LAUREL         FAIR      69  69 100 CALM      29.96F
MCCOMB         CLEAR     69  67  93 CALM      29.95S
NATCHEZ        CLEAR     73  67  81 SE5       29.95R
PINE BELT      CLEAR     67  67 100 CALM      29.96F
$$

MSZ080>082-250400-
COASTAL MISSISSIPPI

CITY           SKY/WX    TMP DP  RH WIND       PRES   REMARKS
BILOXI         CLEAR     72  69  92 N3        29.93R
PASCAGOULA     MOCLDY    71  68  90 CALM      29.93S
GULFPORT       CLEAR     72  70  93 N5        29.92S
$$

LAZ007>009-015>016-023>026-250400-
NORTHEAST LOUISIANA

CITY           SKY/WX    TMP DP  RH WIND       PRES   REMARKS
BASTROP        FAIR      70  69  97 CALM      29.94S
TALLULAH/VBURG CLEAR     73  66  78 SE6       29.94R
VIDALIA          N/A    N/A N/A N/A MISG      29.93R
$$




USA.gov is the U.S. government's official web portal to all federal, state and local government web resources and services.